Vorticity
nan nan nan nan nan nan nan nan nan nan nan nan nan nan nan nan nan nan nan nan nan nan nan nan nan nan nan nan nan nan nan nan nan nan nan nan nan nan nan nan nan nan nan nan nan
nan 7 7 7 7 8 9 8 8 8 9 10 11 11 10 9 11 12 9 5 10 12 14 4 5 3 4 3 4 3 3 6 8 15 16 9 7 4 6 3 6 8 19 16 nan
nan 6 7 7 8 9 9 9 9 9 8 11 12 12 10 7 11 12 5 9 14 13 8 3 5 2 3 7 4 1 2 4 6 13 16 6 8 6 7 10 10 14 13 7 nan
nan 7 7 7 8 9 10 10 9 10 9 11 12 11 9 8 8 -2 5 29 23 9 9 8 5 2 2 7 4 2 5 -1 7 9 4 11 8 8 -1 9 20 18 11 7 nan
nan 7 8 7 8 10 11 10 10 10 12 13 14 10 6 6 0 3 16 30 22 9 8 6 4 3 4 4 6 9 0 7 7 4 6 4 5 7 9 7 15 15 12 6 nan
nan 7 7 8 8 9 11 11 13 13 14 20 15 4 6 8 1 8 21 18 11 8 6 2 4 2 6 13 4 6 8 5 7 5 2 4 7 4 13 12 13 12 10 8 nan
nan 7 7 7 8 9 10 14 20 17 19 19 7 3 9 6 6 9 16 16 10 10 5 1 6 6 5 12 10 0 9 12 8 5 3 9 9 12 10 10 10 10 10 8 nan
nan 7 7 7 8 10 11 18 23 17 13 7 2 4 11 6 9 11 11 14 5 11 11 5 10 8 -2 7 15 13 5 9 20 7 5 8 12 15 6 8 10 9 9 9 nan
nan 7 8 9 10 12 12 18 17 9 6 5 3 6 11 9 8 8 13 15 10 5 11 9 9 13 6 2 9 10 10 11 6 9 5 7 7 11 8 7 9 9 9 7 nan
nan 7 8 8 11 12 17 20 11 8 5 6 12 9 2 8 11 13 15 12 10 7 8 6 5 7 8 9 5 8 6 6 5 9 6 2 2 9 9 8 9 8 9 8 nan
nan 8 8 9 11 15 20 19 11 4 -0 9 12 11 4 7 9 17 13 5 12 9 3 10 6 7 5 3 -4 5 19 11 7 7 12 4 5 7 7 8 8 9 9 9 nan
nan 7 7 9 14 20 18 12 8 8 8 10 8 7 5 8 9 10 12 11 9 7 6 4 11 6 7 8 9 3 7 11 6 9 11 9 8 4 9 8 9 8 8 9 nan
nan 8 8 10 23 21 11 5 7 12 11 9 4 9 8 9 7 5 15 14 12 10 9 -5 7 17 8 7 10 7 6 5 11 5 1 11 13 8 6 7 9 9 8 10 nan
nan 8 9 21 23 12 4 0 17 12 9 12 6 5 8 13 4 4 12 13 12 14 10 9 4 12 12 7 7 8 7 4 6 6 12 10 10 13 5 8 7 8 9 9 nan
nan 10 16 22 14 7 3 12 17 9 9 8 8 5 9 9 9 8 11 13 12 12 9 8 17 7 4 10 7 7 10 12 6 3 8 9 8 16 13 5 8 8 8 8 nan
nan 13 24 21 4 0 10 17 11 6 12 7 5 9 9 8 9 6 11 12 10 14 9 3 8 15 11 5 8 13 11 10 13 11 11 9 6 10 9 11 7 8 9 10 nan
nan 18 24 9 3 6 16 13 7 11 9 7 6 7 7 8 7 7 9 8 14 18 14 12 5 8 13 14 10 6 6 8 11 12 12 11 3 7 8 8 9 9 13 10 nan
nan 27 19 5 7 15 13 8 8 10 9 6 7 5 8 10 5 6 10 6 8 9 12 19 19 20 10 9 9 9 -1 3 3 5 12 13 11 6 -2 5 20 10 12 12 nan
nan 21 2 6 16 15 11 8 8 10 8 9 8 12 11 5 4 10 8 12 9 13 13 19 9 5 17 21 11 11 7 -1 4 5 10 16 8 12 22 6 0 9 12 12 nan
nan 6 2 10 17 14 8 11 9 7 10 11 10 10 10 7 7 8 8 14 6 7 11 12 13 7 7 13 14 11 16 12 10 9 9 6 13 15 12 13 6 4 5 8 nan
nan 4 -2 14 20 10 10 8 9 6 11 11 10 7 7 7 8 5 9 7 10 7 5 9 14 7 6 13 17 13 5 6 13 9 8 7 12 20 18 9 8 10 8 6 nan
nan 5 5 16 16 11 11 12 10 7 11 11 11 11 11 10 13 11 6 6 10 7 11 9 11 11 6 1 2 7 28 17 9 7 -3 8 9 8 19 19 12 11 10 8 nan
nan 7 10 18 14 14 9 9 9 9 9 11 11 11 10 9 11 10 7 13 9 4 15 11 6 13 16 16 9 11 12 15 9 17 13 6 -1 -2 8 15 21 15 13 14 nan
nan 12 6 11 11 10 8 6 10 11 9 7 12 11 8 13 7 6 10 7 7 8 7 7 7 6 1 4 17 17 8 11 16 15 9 10 13 8 -4 2 8 7 13 15 nan
nan 10 8 7 7 7 12 9 9 8 8 13 15 6 11 13 12 9 10 8 7 10 1 5 9 9 5 1 5 5 7 5 8 11 14 11 6 7 13 4 4 6 7 11 nan
nan 10 11 8 6 5 8 11 9 9 11 9 6 4 10 12 6 7 12 13 11 12 8 5 8 10 9 12 13 11 12 10 9 9 11 5 14 12 3 6 15 13 9 11 nan
nan nan nan nan nan nan nan nan nan nan nan nan nan nan nan nan nan nan nan nan nan nan nan nan nan nan nan nan nan nan nan nan nan nan nan nan nan nan nan nan nan nan nan nan nan
CAPE
0 0 0 0 1 1 2 1 0 0 1 1 2 4 0 1 0 0 0 0 0 0 0 29 54 18 22 121 558 295 372 375 166 235 720 489 731 728 634 517 353 291 364 333 167
0 0 0 0 0 1 2 2 1 0 1 2 3 4 1 2 0 0 0 0 0 0 0 5 6 4 8 73 512 376 521 455 99 348 343 468 907 874 719 547 365 272 209 172 179
0 0 0 0 0 2 1 1 1 0 0 1 2 1 1 0 0 0 0 0 0 0 0 0 0 0 0 9 278 343 503 280 244 468 646 428 883 863 818 713 556 480 290 191 225
0 0 0 0 0 2 1 0 0 1 1 1 1 0 0 0 0 0 0 0 0 0 0 0 0 0 0 0 17 114 223 583 459 248 636 772 865 859 760 801 654 477 286 226 313
0 1 3 1 0 1 1 0 0 0 0 1 1 0 0 0 0 0 0 0 0 0 0 0 0 0 0 0 0 0 196 450 505 341 325 295 530 875 836 831 558 389 264 254 287
1 2 2 2 4 0 0 0 0 0 0 0 0 0 0 0 0 0 0 0 0 0 0 0 0 0 0 0 0 0 0 64 366 509 342 431 353 660 839 728 573 374 295 261 233
1 2 1 1 1 0 0 0 0 0 0 0 0 0 0 0 0 0 0 0 0 0 0 0 0 0 0 0 0 0 0 0 6 398 448 372 395 403 815 685 601 417 312 232 232
1 2 2 3 0 0 0 0 0 0 0 0 0 0 0 0 0 0 0 0 0 0 0 0 0 0 0 0 0 0 0 0 11 271 334 275 407 454 768 745 671 485 331 232 212
1 1 1 2 0 0 0 0 0 0 0 0 0 0 0 0 0 0 0 0 0 0 0 0 0 0 0 0 0 0 0 0 360 284 380 315 454 804 689 775 796 569 393 274 258
2 1 1 0 0 0 0 0 0 0 0 0 0 0 0 0 0 0 0 0 0 0 0 0 0 0 0 0 0 0 0 0 121 296 382 444 510 811 745 776 836 678 441 338 335
2 0 1 0 0 0 0 0 0 0 0 0 0 0 0 0 0 0 0 0 0 0 0 0 0 0 0 0 0 0 0 0 0 215 350 449 429 927 706 770 792 783 619 422 345
3 0 0 1 0 0 0 0 0 0 0 0 0 0 0 0 0 0 0 0 0 0 0 0 0 0 0 0 0 0 0 0 0 21 262 399 342 340 933 699 825 824 754 514 420
3 1 0 0 0 0 0 0 0 0 0 0 0 0 0 0 0 0 0 0 0 0 0 0 0 0 0 0 0 0 0 0 0 0 6 263 371 304 533 811 721 717 757 590 460
6 3 1 1 0 0 0 0 0 0 0 0 0 0 0 0 0 0 0 0 0 0 0 0 0 0 0 0 0 0 0 0 0 0 0 63 276 259 279 876 849 764 742 697 555
2 2 1 0 0 0 0 0 0 0 0 0 0 0 0 0 0 0 0 0 0 0 0 0 0 0 0 0 0 0 0 0 0 0 0 1 106 136 231 468 968 891 722 631 590
1 0 0 0 0 0 0 0 0 0 0 0 0 0 0 0 0 0 0 0 0 0 0 0 0 0 0 0 0 0 0 0 0 0 0 0 7 40 97 212 452 866 818 765 578
0 0 0 0 0 0 0 0 0 0 0 0 0 0 0 0 0 0 0 0 0 0 0 0 0 0 0 0 0 0 0 0 0 0 0 0 0 0 40 151 176 436 800 897 920
0 0 0 0 0 0 0 0 0 0 0 0 0 0 0 0 0 0 0 0 0 0 0 0 0 0 0 0 0 0 0 0 0 0 0 0 0 0 0 3 55 178 628 969 1070
0 0 0 0 0 0 0 0 0 0 0 0 0 0 0 0 0 0 0 0 0 0 0 0 0 0 0 0 0 2 0 0 0 0 0 0 0 0 0 0 0 14 179 392 702
0 0 0 0 0 0 0 0 0 0 0 0 0 0 0 0 0 0 0 0 0 0 0 0 0 0 0 0 0 0 0 0 0 0 0 0 0 0 0 0 0 0 4 134 424
0 0 0 0 0 0 0 0 0 0 0 0 0 0 0 0 0 0 0 0 0 0 0 0 0 0 0 0 0 0 0 25 4 1 0 0 0 0 0 0 0 0 0 16 425
0 0 0 0 0 0 0 0 0 0 0 0 0 1 2 1 3 7 5 4 0 0 0 0 0 0 0 0 11 2 36 16 57 12 0 0 1 0 0 0 0 0 0 11 81
0 0 0 0 0 0 0 0 0 0 0 0 0 0 0 0 0 8 10 5 0 0 1 8 0 0 0 0 0 0 1 32 46 59 32 10 0 0 0 0 0 0 0 29 76
0 0 0 0 1 0 0 1 1 1 4 4 12 16 26 33 34 31 21 19 5 3 0 0 0 2 0 0 0 4 29 43 16 57 28 36 32 6 0 0 0 0 0 2 48
0 0 0 0 0 5 5 8 12 11 10 8 13 15 13 22 15 21 26 22 22 33 18 39 24 22 2 0 0 0 0 0 0 5 39 35 41 53 0 0 0 0 0 0 0
1 3 12 0 9 5 5 9 12 11 4 11 15 17 37 61 39 86 69 121 102 64 107 100 62 24 18 0 0 0 0 0 0 0 0 0 5 43 17 0 0 0 11 33 31
6 8 9 3 18 29 30 20 18 23 11 8 16 31 15 11 21 6 73 94 145 154 208 119 108 76 34 6 1 0 0 0 0 0 0 0 0 2 15 1 50 18 5 0 4